• In Italy
  • List of Countries
  • For 7 days
  • Water Temperature
  • Satellite Maps
  • Weather Map
  • Weather Widgets
  • user-avatar
    Login

    Hourly Weather Bhubaneswar

    Today, 19 November, Sunday

    Time Temperature Precipitation Wind Pressure Humidity
    00:00 +26°C° 0 mm 1 mps 756 mmHg 95%
    01:00 +25°C° 0 mm 1 mps 756 mmHg 95%
    02:00 +25°C° 0 mm 1 mps 756 mmHg 95%
    03:00 +25°C° 0 mm 1 mps 756 mmHg 96%
    04:00 +25°C° 0 mm 1 mps 756 mmHg 96%
    05:00 +25°C° 0 mm 1 mps 756 mmHg 96%
    06:00 +25°C° 0 mm 1 mps 756 mmHg 95%
    07:00 +26°C° 0 mm 1 mps 756 mmHg 90%
    08:00 +27°C° 0 mm 1 mps 757 mmHg 86%
    09:00 +29°C° 0 mm 1 mps 757 mmHg 81%
    10:00 +30°C° 0.5 mm 1 mps 757 mmHg 76%
    11:00 +31°C° 0.5 mm 1 mps 757 mmHg 72%
    12:00 +31°C° 0 mm 2 mps 757 mmHg 68%
    13:00 +31°C° 1 mm 1 mps 757 mmHg 67%
    14:00 +31°C° 1 mm 1 mps 756 mmHg 66%
    15:00 +32°C° 1 mm 1 mps 755 mmHg 66%
    16:00 +30°C° 0.4 mm 1 mps 755 mmHg 71%
    17:00 +29°C° 0.4 mm 1 mps 755 mmHg 75%
    18:00 +28°C° 0.4 mm 1 mps 755 mmHg 80%
    19:00 +28°C° 0 mm 1 mps 756 mmHg 82%
    20:00 +28°C° 0 mm 1 mps 756 mmHg 85%
    21:00 +27°C° 0 mm 1 mps 757 mmHg 87%
    22:00 +27°C° 0 mm 1 mps 757 mmHg 88%
    23:00 +27°C° 0 mm 1 mps 757 mmHg 89%

    Tomorrow, 20 November, Monday

    Time Temperature Precipitation Wind Pressure Humidity
    00:00 +25°C° 0 mm 0 mps 757 mmHg 90%
    01:00 +24°C° 0.2 mm 0 mps 756 mmHg 91%
    02:00 +24°C° 0.2 mm 0 mps 756 mmHg 91%
    03:00 +24°C° 0.2 mm 0 mps 756 mmHg 92%
    04:00 +26°C° 0 mm 1 mps 756 mmHg 92%
    05:00 +26°C° 0 mm 1 mps 756 mmHg 92%
    06:00 +26°C° 0 mm 1 mps 756 mmHg 93%
    07:00 +27°C° 0 mm 1 mps 757 mmHg 87%
    08:00 +28°C° 0 mm 1 mps 758 mmHg 82%
    09:00 +29°C° 0 mm 2 mps 758 mmHg 77%
    10:00 +30°C° 0 mm 2 mps 758 mmHg 70%
    11:00 +31°C° 0 mm 2 mps 758 mmHg 64%
    12:00 +34°C° 0 mm 2 mps 758 mmHg 57%
    13:00 +34°C° 0 mm 2 mps 757 mmHg 55%
    14:00 +34°C° 0 mm 2 mps 756 mmHg 54%
    15:00 +34°C° 0 mm 2 mps 755 mmHg 52%
    16:00 +32°C° 0 mm 2 mps 755 mmHg 57%
    17:00 +30°C° 0 mm 2 mps 755 mmHg 61%
    18:00 +29°C° 0 mm 2 mps 755 mmHg 66%
    19:00 +28°C° 0 mm 2 mps 756 mmHg 69%
    20:00 +28°C° 0 mm 2 mps 756 mmHg 72%
    21:00 +27°C° 0 mm 2 mps 757 mmHg 75%
    22:00 +27°C° 0 mm 1 mps 757 mmHg 75%
    23:00 +26°C° 0 mm 1 mps 757 mmHg 75%

    Day after tomorrow, 21 November, Tuesday

    Time Temperature Precipitation Wind Pressure Humidity
    00:00 +24°C° 0 mm 0 mps 757 mmHg 76%
    01:00 +26°C° 0 mm 1 mps 756 mmHg 76%
    02:00 +26°C° 0 mm 1 mps 756 mmHg 77%
    03:00 +25°C° 0 mm 1 mps 756 mmHg 77%
    04:00 +25°C° 0 mm 1 mps 756 mmHg 77%
    05:00 +25°C° 0 mm 2 mps 756 mmHg 78%
    06:00 +25°C° 0 mm 2 mps 756 mmHg 78%
    07:00 +26°C° 0 mm 2 mps 757 mmHg 73%
    08:00 +27°C° 0 mm 2 mps 758 mmHg 67%
    09:00 +28°C° 0 mm 3 mps 758 mmHg 62%
    10:00 +30°C° 0 mm 3 mps 758 mmHg 57%
    11:00 +31°C° 0 mm 3 mps 758 mmHg 51%
    12:00 +33°C° 0 mm 4 mps 758 mmHg 46%
    13:00 +33°C° 0 mm 4 mps 757 mmHg 45%
    14:00 +33°C° 0 mm 4 mps 756 mmHg 45%
    15:00 +33°C° 0 mm 3 mps 755 mmHg 44%
    16:00 +30°C° 0 mm 3 mps 755 mmHg 49%
    17:00 +29°C° 0 mm 3 mps 755 mmHg 53%
    18:00 +27°C° 0 mm 3 mps 755 mmHg 58%
    19:00 +26°C° 0 mm 2 mps 756 mmHg 59%
    20:00 +26°C° 0 mm 2 mps 757 mmHg 59%
    21:00 +25°C° 0 mm 2 mps 757 mmHg 60%
    22:00 +25°C° 0 mm 1 mps 757 mmHg 60%
    23:00 +25°C° 0 mm 1 mps 757 mmHg 60%

    22 November, Wednesday

    Time Temperature Precipitation Wind Pressure Humidity
    00:00 +24°C° 0 mm 1 mps 757 mmHg 60%
    01:00 +24°C° 0 mm 1 mps 757 mmHg 61%
    02:00 +24°C° 0 mm 1 mps 756 mmHg 61%
    03:00 +23°C° 0 mm 1 mps 756 mmHg 62%
    04:00 +23°C° 0 mm 2 mps 756 mmHg 62%
    05:00 +23°C° 0 mm 2 mps 756 mmHg 63%
    06:00 +21°C° 0 mm 2 mps 756 mmHg 64%
    07:00 +24°C° 0 mm 2 mps 757 mmHg 61%
    08:00 +25°C° 0 mm 3 mps 758 mmHg 59%
    09:00 +26°C° 0 mm 3 mps 758 mmHg 56%
    10:00 +28°C° 0 mm 3 mps 758 mmHg 52%
    11:00 +29°C° 0 mm 3 mps 758 mmHg 48%
    12:00 +30°C° 0 mm 3 mps 757 mmHg 44%
    13:00 +30°C° 0 mm 3 mps 756 mmHg 42%
    14:00 +31°C° 0 mm 2 mps 756 mmHg 41%
    15:00 +31°C° 0 mm 2 mps 755 mmHg 40%
    16:00 +30°C° 0 mm 2 mps 755 mmHg 44%
    17:00 +28°C° 0 mm 2 mps 755 mmHg 48%
    18:00 +26°C° 0 mm 2 mps 755 mmHg 52%
    19:00 +26°C° 0 mm 2 mps 756 mmHg 54%
    20:00 +25°C° 0 mm 2 mps 756 mmHg 56%
    21:00 +24°C° 0 mm 1 mps 757 mmHg 59%
    22:00 +24°C° 0 mm 1 mps 757 mmHg 61%
    23:00 +23°C° 0 mm 1 mps 757 mmHg 63%

    23 November, Thursday

    Time Temperature Precipitation Wind Pressure Humidity
    00:00 +22°C° 0 mm 1 mps 756 mmHg 65%
    01:00 +22°C° 0 mm 1 mps 756 mmHg 66%
    02:00 +22°C° 0 mm 1 mps 756 mmHg 67%
    03:00 +21°C° 0 mm 1 mps 755 mmHg 68%
    04:00 +20°C° 0 mm 2 mps 756 mmHg 68%
    05:00 +20°C° 0 mm 2 mps 756 mmHg 67%
    06:00 +19°C° 0 mm 2 mps 756 mmHg 67%
    07:00 +21°C° 0 mm 2 mps 757 mmHg 63%
    08:00 +23°C° 0 mm 2 mps 758 mmHg 58%
    09:00 +25°C° 0 mm 2 mps 758 mmHg 54%
    10:00 +26°C° 0 mm 2 mps 758 mmHg 48%
    11:00 +27°C° 0 mm 3 mps 758 mmHg 42%
    12:00 +29°C° 0 mm 3 mps 757 mmHg 36%
    13:00 +29°C° 0 mm 3 mps 757 mmHg 34%
    14:00 +30°C° 0 mm 3 mps 756 mmHg 33%
    15:00 +30°C° 0 mm 2 mps 755 mmHg 31%
    16:00 +28°C° 0 mm 2 mps 755 mmHg 35%
    17:00 +26°C° 0 mm 2 mps 756 mmHg 39%
    18:00 +24°C° 0 mm 2 mps 756 mmHg 43%
    19:00 +24°C° 0 mm 2 mps 756 mmHg 45%
    20:00 +23°C° 0 mm 2 mps 757 mmHg 48%
    21:00 +21°C° 0 mm 2 mps 757 mmHg 50%
    22:00 +20°C° 0 mm 2 mps 757 mmHg 51%
    23:00 +21°C° 0 mm 1 mps 757 mmHg 53%

    24 November, Friday

    Time Temperature Precipitation Wind Pressure Humidity
    00:00 +20°C° 0 mm 1 mps 757 mmHg 54%
    01:00 +20°C° 0 mm 1 mps 756 mmHg 55%
    02:00 +20°C° 0 mm 1 mps 756 mmHg 55%
    03:00 +18°C° 0 mm 2 mps 756 mmHg 55%
    04:00 +18°C° 0 mm 2 mps 756 mmHg 55%
    05:00 +18°C° 0 mm 2 mps 757 mmHg 56%
    06:00 +17°C° 0 mm 2 mps 757 mmHg 56%
    07:00 +19°C° 0 mm 2 mps 758 mmHg 53%
    08:00 +21°C° 0 mm 2 mps 758 mmHg 50%
    09:00 +23°C° 0 mm 2 mps 759 mmHg 47%
    10:00 +25°C° 0 mm 2 mps 758 mmHg 43%
    11:00 +27°C° 0 mm 3 mps 758 mmHg 38%
    12:00 +28°C° 0 mm 3 mps 758 mmHg 34%
    13:00 +29°C° 0 mm 3 mps 757 mmHg 33%
    14:00 +29°C° 0 mm 2 mps 756 mmHg 32%
    15:00 +30°C° 0 mm 2 mps 756 mmHg 31%
    16:00 +28°C° 0 mm 2 mps 756 mmHg 35%
    17:00 +26°C° 0 mm 2 mps 756 mmHg 40%
    18:00 +24°C° 0 mm 2 mps 756 mmHg 44%
    19:00 +23°C° 0 mm 2 mps 757 mmHg 47%
    20:00 +22°C° 0 mm 1 mps 757 mmHg 50%
    21:00 +22°C° 0 mm 1 mps 758 mmHg 53%
    22:00 +21°C° 0 mm 1 mps 758 mmHg 55%
    23:00 +21°C° 0 mm 1 mps 757 mmHg 57%
    Show more